Year,Month,Day,Hour,Minute,Value (Times are PST for temperature in C)
2013,05,05,00,00,17.20
2013,05,05,00,01,17.20
2013,05,05,00,02,17.20
2013,05,05,00,03,17.20
2013,05,05,00,04,17.20
2013,05,05,00,05,17.20
2013,05,05,00,06,17.20
2013,05,05,00,07,17.20
2013,05,05,00,08,17.10
2013,05,05,00,09,17.10
2013,05,05,00,10,17.10
2013,05,05,00,11,17.10
2013,05,05,00,12,17.10
2013,05,05,00,13,17.10
2013,05,05,00,14,17.10
2013,05,05,00,15,17.10
2013,05,05,00,16,17.10
2013,05,05,00,17,17.10
2013,05,05,00,18,17.10
2013,05,05,00,19,17.10
2013,05,05,00,20,17.20
2013,05,05,00,21,17.20
2013,05,05,00,22,17.10
2013,05,05,00,23,17.10
2013,05,05,00,24,17.10
2013,05,05,00,25,17.00
2013,05,05,00,26,17.00
2013,05,05,00,27,16.90
2013,05,05,00,28,16.90
2013,05,05,00,29,16.80
2013,05,05,00,30,16.80
2013,05,05,00,31,16.70
2013,05,05,00,32,16.70
2013,05,05,00,33,16.60
2013,05,05,00,34,16.50
2013,05,05,00,35,16.40
2013,05,05,00,36,16.30
2013,05,05,00,37,16.20
2013,05,05,00,38,16.10
2013,05,05,00,39,16.00
2013,05,05,00,40,16.00
2013,05,05,00,41,15.90
2013,05,05,00,42,15.90
2013,05,05,00,43,15.80
2013,05,05,00,44,15.80
2013,05,05,00,45,15.80
2013,05,05,00,46,15.80
2013,05,05,00,47,15.80
2013,05,05,00,48,15.80
2013,05,05,00,49,15.80
2013,05,05,00,50,15.80
2013,05,05,00,51,15.80
2013,05,05,00,52,15.80
2013,05,05,00,53,15.80
2013,05,05,00,54,15.80
2013,05,05,00,55,16.00
2013,05,05,00,56,16.20
2013,05,05,00,57,16.50
2013,05,05,00,58,16.80
2013,05,05,00,59,17.20
2013,05,05,01,00,17.50
2013,05,05,01,01,17.80
2013,05,05,01,02,18.00
2013,05,05,01,03,18.10
2013,05,05,01,04,18.20
2013,05,05,01,05,18.30
2013,05,05,01,06,18.40
2013,05,05,01,07,18.50
2013,05,05,01,08,18.60
2013,05,05,01,09,18.70
2013,05,05,01,10,18.90
2013,05,05,01,11,19.10
2013,05,05,01,12,19.30
2013,05,05,01,13,19.40
2013,05,05,01,14,19.40
2013,05,05,01,15,19.60
2013,05,05,01,16,19.70
2013,05,05,01,17,19.70
2013,05,05,01,18,19.80
2013,05,05,01,19,19.80
2013,05,05,01,20,19.80
2013,05,05,01,21,19.80
2013,05,05,01,22,19.80
2013,05,05,01,23,19.80
2013,05,05,01,24,19.80
2013,05,05,01,25,19.80
2013,05,05,01,26,19.80
2013,05,05,01,27,19.80
2013,05,05,01,28,19.90
2013,05,05,01,29,19.90
2013,05,05,01,30,19.90
2013,05,05,01,31,19.90
2013,05,05,01,32,19.90
2013,05,05,01,33,19.90
2013,05,05,01,34,19.80
2013,05,05,01,35,19.80
2013,05,05,01,36,19.80
2013,05,05,01,37,19.70
2013,05,05,01,38,19.70
2013,05,05,01,39,19.60
2013,05,05,01,40,19.60
2013,05,05,01,41,19.60
2013,05,05,01,42,19.50
2013,05,05,01,43,19.50
2013,05,05,01,44,19.40
2013,05,05,01,45,19.40
2013,05,05,01,46,19.40
2013,05,05,01,47,19.40
2013,05,05,01,48,19.40
2013,05,05,01,49,19.40
2013,05,05,01,50,19.40
2013,05,05,01,51,19.30
2013,05,05,01,52,19.30
2013,05,05,01,53,19.30
2013,05,05,01,54,19.30
2013,05,05,01,55,19.30
2013,05,05,01,56,19.30
2013,05,05,01,57,19.30
2013,05,05,01,58,19.30
2013,05,05,01,59,19.30
2013,05,05,02,00,19.30
2013,05,05,02,01,19.30
2013,05,05,02,02,19.20
2013,05,05,02,03,19.20
2013,05,05,02,04,19.20
2013,05,05,02,05,19.10
2013,05,05,02,06,19.10
2013,05,05,02,07,19.10
2013,05,05,02,08,19.10
2013,05,05,02,09,19.00
2013,05,05,02,10,19.00
2013,05,05,02,11,18.90
2013,05,05,02,12,18.90
2013,05,05,02,13,18.90
2013,05,05,02,14,18.90
2013,05,05,02,15,18.90
2013,05,05,02,16,18.90
2013,05,05,02,17,18.90
2013,05,05,02,18,18.90
2013,05,05,02,19,18.80
2013,05,05,02,20,18.80
2013,05,05,02,21,18.70
2013,05,05,02,22,18.70
2013,05,05,02,23,18.70
2013,05,05,02,24,18.70
2013,05,05,02,25,18.70
2013,05,05,02,26,18.70
2013,05,05,02,27,18.70
2013,05,05,02,28,18.70
2013,05,05,02,29,18.70
2013,05,05,02,30,18.70
2013,05,05,02,31,18.70
2013,05,05,02,32,18.70
2013,05,05,02,33,18.70
2013,05,05,02,34,18.60
2013,05,05,02,35,18.60
2013,05,05,02,36,18.60
2013,05,05,02,37,18.60
2013,05,05,02,38,18.60
2013,05,05,02,39,18.60
2013,05,05,02,40,18.60
2013,05,05,02,41,18.50
2013,05,05,02,42,18.50
2013,05,05,02,43,18.40
2013,05,05,02,44,18.30
2013,05,05,02,45,18.30
2013,05,05,02,46,18.20
2013,05,05,02,47,18.20
2013,05,05,02,48,18.20
2013,05,05,02,49,18.10
2013,05,05,02,50,18.10
2013,05,05,02,51,18.10
2013,05,05,02,52,18.00
2013,05,05,02,53,18.00
2013,05,05,02,54,18.00
2013,05,05,02,55,17.90
2013,05,05,02,56,17.90
2013,05,05,02,57,17.90
2013,05,05,02,58,17.90
2013,05,05,02,59,17.90
2013,05,05,03,00,17.90
2013,05,05,03,01,17.90
2013,05,05,03,02,17.90
2013,05,05,03,03,17.90
2013,05,05,03,04,17.90
2013,05,05,03,05,17.90
2013,05,05,03,06,17.90
2013,05,05,03,07,17.80
2013,05,05,03,08,17.80
2013,05,05,03,09,17.80
2013,05,05,03,10,17.80
2013,05,05,03,11,17.80
2013,05,05,03,12,17.80
2013,05,05,03,13,17.80
2013,05,05,03,14,17.80
2013,05,05,03,15,17.80
2013,05,05,03,16,17.80
2013,05,05,03,17,17.80
2013,05,05,03,18,17.80
2013,05,05,03,19,17.80
2013,05,05,03,20,17.80
2013,05,05,03,21,17.80
2013,05,05,03,22,17.80
2013,05,05,03,23,17.70
2013,05,05,03,24,17.70
2013,05,05,03,25,17.70
2013,05,05,03,26,17.70
2013,05,05,03,27,17.60
2013,05,05,03,28,17.60
2013,05,05,03,29,17.60
2013,05,05,03,30,17.60
2013,05,05,03,31,17.50
2013,05,05,03,32,17.50
2013,05,05,03,33,17.40
2013,05,05,03,34,17.40
2013,05,05,03,35,17.40
2013,05,05,03,36,17.40
2013,05,05,03,37,17.40
2013,05,05,03,38,17.40
2013,05,05,03,39,17.40
2013,05,05,03,40,17.40
2013,05,05,03,41,17.40
2013,05,05,03,42,17.40
2013,05,05,03,43,17.40
2013,05,05,03,44,17.40
2013,05,05,03,45,17.40
2013,05,05,03,46,17.40
2013,05,05,03,47,17.40
2013,05,05,03,48,17.40
2013,05,05,03,49,17.40
2013,05,05,03,50,17.30
2013,05,05,03,51,17.30
2013,05,05,03,52,17.30
2013,05,05,03,53,17.30
2013,05,05,03,54,17.30
2013,05,05,03,55,17.30
2013,05,05,03,56,17.30
2013,05,05,03,57,17.30
2013,05,05,03,58,17.30
2013,05,05,03,59,17.30
2013,05,05,04,00,17.30
2013,05,05,04,01,17.30
2013,05,05,04,02,17.30
2013,05,05,04,03,17.30
2013,05,05,04,04,17.30
2013,05,05,04,05,17.40
2013,05,05,04,06,17.40
2013,05,05,04,07,17.40
2013,05,05,04,08,17.40
2013,05,05,04,09,17.40
2013,05,05,04,10,17.30
2013,05,05,04,11,17.30
2013,05,05,04,12,17.30
2013,05,05,04,13,17.30
2013,05,05,04,14,17.30
2013,05,05,04,15,17.30
2013,05,05,04,16,17.30
2013,05,05,04,17,17.30
2013,05,05,04,18,17.30
2013,05,05,04,19,17.30
2013,05,05,04,20,17.30
2013,05,05,04,21,17.30
2013,05,05,04,22,17.30
2013,05,05,04,23,17.20
2013,05,05,04,24,17.20
2013,05,05,04,25,17.20
2013,05,05,04,26,17.20
2013,05,05,04,27,17.20
2013,05,05,04,28,17.20
2013,05,05,04,29,17.10
2013,05,05,04,30,17.10
2013,05,05,04,31,17.10
2013,05,05,04,32,17.00
2013,05,05,04,33,17.00
2013,05,05,04,34,17.00
2013,05,05,04,35,17.00
2013,05,05,04,36,17.00
2013,05,05,04,37,16.90
2013,05,05,04,38,16.90
2013,05,05,04,39,16.90
2013,05,05,04,40,16.80
2013,05,05,04,41,16.80
2013,05,05,04,42,16.80
2013,05,05,04,43,16.80
2013,05,05,04,44,16.80
2013,05,05,04,45,16.70
2013,05,05,04,46,16.70
2013,05,05,04,47,16.70
2013,05,05,04,48,16.70
2013,05,05,04,49,16.60
2013,05,05,04,50,16.60
2013,05,05,04,51,16.60
2013,05,05,04,52,16.50
2013,05,05,04,53,16.50
2013,05,05,04,54,16.40
2013,05,05,04,55,16.40
2013,05,05,04,56,16.40
2013,05,05,04,57,16.30
2013,05,05,04,58,16.30
2013,05,05,04,59,16.30
2013,05,05,05,00,16.20
2013,05,05,05,01,16.20
2013,05,05,05,02,16.10
2013,05,05,05,03,16.10
2013,05,05,05,04,16.10
2013,05,05,05,05,16.10
2013,05,05,05,06,16.10
2013,05,05,05,07,16.00
2013,05,05,05,08,16.00
2013,05,05,05,09,16.00
2013,05,05,05,10,16.00
2013,05,05,05,11,15.90
2013,05,05,05,12,15.90
2013,05,05,05,13,15.90
2013,05,05,05,14,15.80
2013,05,05,05,15,15.80
2013,05,05,05,16,15.80
2013,05,05,05,17,15.80
2013,05,05,05,18,15.80
2013,05,05,05,19,15.90
2013,05,05,05,20,15.90
2013,05,05,05,21,15.90
2013,05,05,05,22,15.90
2013,05,05,05,23,15.90
2013,05,05,05,24,15.90
2013,05,05,05,25,15.90
2013,05,05,05,26,15.90
2013,05,05,05,27,15.90
2013,05,05,05,28,15.90
2013,05,05,05,29,15.90
2013,05,05,05,30,15.90
2013,05,05,05,31,15.90
2013,05,05,05,32,15.90
2013,05,05,05,33,15.90
2013,05,05,05,34,15.90
2013,05,05,05,35,15.80
2013,05,05,05,36,15.80
2013,05,05,05,37,15.80
2013,05,05,05,38,15.80
2013,05,05,05,39,15.80
2013,05,05,05,40,15.80
2013,05,05,05,41,15.80
2013,05,05,05,42,15.80
2013,05,05,05,43,15.80
2013,05,05,05,44,15.80
2013,05,05,05,45,15.90
2013,05,05,05,46,15.90
2013,05,05,05,47,15.90
2013,05,05,05,48,15.90
2013,05,05,05,49,15.90
2013,05,05,05,50,15.90
2013,05,05,05,51,15.90
2013,05,05,05,52,15.90
2013,05,05,05,53,15.90
2013,05,05,05,54,15.80
2013,05,05,05,55,15.80
2013,05,05,05,56,15.80
2013,05,05,05,57,15.70
2013,05,05,05,58,15.70
2013,05,05,05,59,15.70
2013,05,05,06,00,15.70
2013,05,05,06,01,15.70
2013,05,05,06,02,15.60
2013,05,05,06,03,15.60
2013,05,05,06,04,15.60
2013,05,05,06,05,15.60
2013,05,05,06,06,15.60
2013,05,05,06,07,15.50
2013,05,05,06,08,15.50
2013,05,05,06,09,15.50
2013,05,05,06,10,15.40
2013,05,05,06,11,15.40
2013,05,05,06,12,15.40
2013,05,05,06,13,15.40
2013,05,05,06,14,15.40
2013,05,05,06,15,15.40
2013,05,05,06,16,15.40
2013,05,05,06,17,15.40
2013,05,05,06,18,15.40
2013,05,05,06,19,15.40
2013,05,05,06,20,15.50
2013,05,05,06,21,15.50
2013,05,05,06,22,15.60
2013,05,05,06,23,15.60
2013,05,05,06,24,15.60
2013,05,05,06,25,15.70
2013,05,05,06,26,15.70
2013,05,05,06,27,15.80
2013,05,05,06,28,15.80
2013,05,05,06,29,15.80
2013,05,05,06,30,15.80
2013,05,05,06,31,15.80
2013,05,05,06,32,15.80
2013,05,05,06,33,15.80
2013,05,05,06,34,15.80
2013,05,05,06,35,15.80
2013,05,05,06,36,15.80
2013,05,05,06,37,15.70
2013,05,05,06,38,15.70
2013,05,05,06,39,15.70
2013,05,05,06,40,15.60
2013,05,05,06,41,15.60
2013,05,05,06,42,15.60
2013,05,05,06,43,15.60
2013,05,05,06,44,15.50
2013,05,05,06,45,15.50
2013,05,05,06,46,15.50
2013,05,05,06,47,15.50
2013,05,05,06,48,15.40
2013,05,05,06,49,15.40
2013,05,05,06,50,15.40
2013,05,05,06,51,15.40
2013,05,05,06,52,15.40
2013,05,05,06,53,15.40
2013,05,05,06,54,15.40
2013,05,05,06,55,15.40
2013,05,05,06,56,15.40
2013,05,05,06,57,15.40
2013,05,05,06,58,15.50
2013,05,05,06,59,15.50
2013,05,05,07,00,15.50
2013,05,05,07,01,15.60
2013,05,05,07,02,15.60
2013,05,05,07,03,15.70
2013,05,05,07,04,15.70
2013,05,05,07,05,15.80
2013,05,05,07,06,15.80
2013,05,05,07,07,15.80
2013,05,05,07,08,15.90
2013,05,05,07,09,15.90
2013,05,05,07,10,16.00
2013,05,05,07,11,16.00
2013,05,05,07,12,16.00
2013,05,05,07,13,16.00
2013,05,05,07,14,16.00
2013,05,05,07,15,16.00
2013,05,05,07,16,16.00
2013,05,05,07,17,16.00
2013,05,05,07,18,16.00
2013,05,05,07,19,16.00
2013,05,05,07,20,15.90
2013,05,05,07,21,15.90
2013,05,05,07,22,15.90
2013,05,05,07,23,15.90
2013,05,05,07,24,15.90
2013,05,05,07,25,15.90
2013,05,05,07,26,15.90
2013,05,05,07,27,15.80
2013,05,05,07,28,15.80
2013,05,05,07,29,15.90
2013,05,05,07,30,15.90
2013,05,05,07,31,15.90
2013,05,05,07,32,16.00
2013,05,05,07,33,16.10
2013,05,05,07,34,16.10
2013,05,05,07,35,16.10
2013,05,05,07,36,16.20
2013,05,05,07,37,16.20
2013,05,05,07,38,16.30
2013,05,05,07,39,16.30
2013,05,05,07,40,16.30
2013,05,05,07,41,16.30
2013,05,05,07,42,16.40
2013,05,05,07,43,16.40
2013,05,05,07,44,16.40
2013,05,05,07,45,16.40
2013,05,05,07,46,16.40
2013,05,05,07,47,16.40
2013,05,05,07,48,16.40
2013,05,05,07,49,16.30
2013,05,05,07,50,16.30
2013,05,05,07,51,16.30
2013,05,05,07,52,16.30
2013,05,05,07,53,16.30
2013,05,05,07,54,16.30
2013,05,05,07,55,16.30
2013,05,05,07,56,16.40
2013,05,05,07,57,16.40
2013,05,05,07,58,16.40
2013,05,05,07,59,16.40
2013,05,05,08,00,16.40
2013,05,05,08,01,16.50
2013,05,05,08,02,16.50
2013,05,05,08,03,16.60
2013,05,05,08,04,16.70
2013,05,05,08,05,16.70
2013,05,05,08,06,16.80
2013,05,05,08,07,16.80
2013,05,05,08,08,16.80
2013,05,05,08,09,16.70
2013,05,05,08,10,16.70
2013,05,05,08,11,16.60
2013,05,05,08,12,16.50
2013,05,05,08,13,16.40
2013,05,05,08,14,16.40
2013,05,05,08,15,16.40
2013,05,05,08,16,16.30
2013,05,05,08,17,16.30
2013,05,05,08,18,16.30
2013,05,05,08,19,16.30
2013,05,05,08,20,16.30
2013,05,05,08,21,16.30
2013,05,05,08,22,16.30
2013,05,05,08,23,16.30
2013,05,05,08,24,16.30
2013,05,05,08,25,16.30
2013,05,05,08,26,16.30
2013,05,05,08,27,16.30
2013,05,05,08,28,16.30
2013,05,05,08,29,16.30
2013,05,05,08,30,16.30
2013,05,05,08,31,16.20
2013,05,05,08,32,16.20
2013,05,05,08,33,16.20
2013,05,05,08,34,16.20
2013,05,05,08,35,16.10
2013,05,05,08,36,16.10
2013,05,05,08,37,16.00
2013,05,05,08,38,15.90
2013,05,05,08,39,15.90
2013,05,05,08,40,15.80
2013,05,05,08,41,15.80
2013,05,05,08,42,15.70
2013,05,05,08,43,15.70
2013,05,05,08,44,15.70
2013,05,05,08,45,15.70
2013,05,05,08,46,15.70
2013,05,05,08,47,15.70
2013,05,05,08,48,15.70
2013,05,05,08,49,15.70
2013,05,05,08,50,15.80
2013,05,05,08,51,15.80
2013,05,05,08,52,15.80
2013,05,05,08,53,15.80
2013,05,05,08,54,15.70
2013,05,05,08,55,15.70
2013,05,05,08,56,15.70
2013,05,05,08,57,15.70
2013,05,05,08,58,15.70
2013,05,05,08,59,15.70
2013,05,05,09,00,15.70
2013,05,05,09,01,15.80
2013,05,05,09,02,15.80
2013,05,05,09,03,15.80
2013,05,05,09,04,15.90
2013,05,05,09,05,15.90
2013,05,05,09,06,15.90
2013,05,05,09,07,15.90
2013,05,05,09,08,15.80
2013,05,05,09,09,15.80
2013,05,05,09,10,15.80
2013,05,05,09,11,15.70
2013,05,05,09,12,15.70
2013,05,05,09,13,15.70
2013,05,05,09,14,15.60
2013,05,05,09,15,15.60
2013,05,05,09,16,15.50
2013,05,05,09,17,15.40
2013,05,05,09,18,15.30
2013,05,05,09,19,15.30
2013,05,05,09,20,15.30
2013,05,05,09,21,15.30
2013,05,05,09,22,15.30
2013,05,05,09,23,15.30
2013,05,05,09,24,15.30
2013,05,05,09,25,15.30
2013,05,05,09,26,15.40
2013,05,05,09,27,15.50
2013,05,05,09,28,15.60
2013,05,05,09,29,15.60
2013,05,05,09,30,15.70
2013,05,05,09,31,15.70
2013,05,05,09,32,15.70
2013,05,05,09,33,15.70
2013,05,05,09,34,15.70
2013,05,05,09,35,15.70
2013,05,05,09,36,15.70
2013,05,05,09,37,15.80
2013,05,05,09,38,15.80
2013,05,05,09,39,15.80
2013,05,05,09,40,15.90
2013,05,05,09,41,15.90
2013,05,05,09,42,15.90
2013,05,05,09,43,15.90
2013,05,05,09,44,15.90
2013,05,05,09,45,16.00
2013,05,05,09,46,16.00
2013,05,05,09,47,16.10
2013,05,05,09,48,16.10
2013,05,05,09,49,16.00
2013,05,05,09,50,16.00
2013,05,05,09,51,16.00
2013,05,05,09,52,16.10
2013,05,05,09,53,16.10
2013,05,05,09,54,16.10
2013,05,05,09,55,16.00
2013,05,05,09,56,15.90
2013,05,05,09,57,15.90
2013,05,05,09,58,15.80
2013,05,05,09,59,15.70
2013,05,05,10,00,15.70
2013,05,05,10,01,15.70
2013,05,05,10,02,15.70
2013,05,05,10,03,15.70
2013,05,05,10,04,15.70
2013,05,05,10,05,15.80
2013,05,05,10,06,15.80
2013,05,05,10,07,15.90
2013,05,05,10,08,15.90
2013,05,05,10,09,16.00
2013,05,05,10,10,16.10
2013,05,05,10,11,16.00
2013,05,05,10,12,16.00
2013,05,05,10,13,15.90
2013,05,05,10,14,15.90
2013,05,05,10,15,15.90
2013,05,05,10,16,16.00
2013,05,05,10,17,16.10
2013,05,05,10,18,16.20
2013,05,05,10,19,16.20
2013,05,05,10,20,16.10
2013,05,05,10,21,16.10
2013,05,05,10,22,16.10
2013,05,05,10,23,16.10
2013,05,05,10,24,16.10
2013,05,05,10,25,16.00
2013,05,05,10,26,16.00
2013,05,05,10,27,15.90
2013,05,05,10,28,15.90
2013,05,05,10,29,15.90
2013,05,05,10,30,15.90
2013,05,05,10,31,15.90
2013,05,05,10,32,15.90
2013,05,05,10,33,16.00
2013,05,05,10,34,16.10
2013,05,05,10,35,16.10
2013,05,05,10,36,16.20
2013,05,05,10,37,16.20
2013,05,05,10,38,16.20
2013,05,05,10,39,16.30
2013,05,05,10,40,16.30
2013,05,05,10,41,16.30
2013,05,05,10,42,16.30
2013,05,05,10,43,16.30
2013,05,05,10,44,16.30
2013,05,05,10,45,16.40
2013,05,05,10,46,16.40
2013,05,05,10,47,16.40
2013,05,05,10,48,16.50
2013,05,05,10,49,16.50
2013,05,05,10,50,16.50
2013,05,05,10,51,16.60
2013,05,05,10,52,16.70
2013,05,05,10,53,16.80
2013,05,05,10,54,16.90
2013,05,05,10,55,16.90
2013,05,05,10,56,16.80
2013,05,05,10,57,16.80
2013,05,05,10,58,16.80
2013,05,05,10,59,16.80
2013,05,05,11,00,16.80
2013,05,05,11,01,16.80
2013,05,05,11,02,16.80
2013,05,05,11,03,16.80
2013,05,05,11,04,16.90
2013,05,05,11,05,16.90
2013,05,05,11,06,16.90
2013,05,05,11,07,16.80
2013,05,05,11,08,16.70
2013,05,05,11,09,16.70
2013,05,05,11,10,16.70
2013,05,05,11,11,16.80
2013,05,05,11,12,16.80
2013,05,05,11,13,16.90
2013,05,05,11,14,16.90
2013,05,05,11,15,16.90
2013,05,05,11,16,17.00
2013,05,05,11,17,17.00
2013,05,05,11,18,17.10
2013,05,05,11,19,17.20
2013,05,05,11,20,17.30
2013,05,05,11,21,17.30
2013,05,05,11,22,17.30
2013,05,05,11,23,17.30
2013,05,05,11,24,17.30
2013,05,05,11,25,17.30
2013,05,05,11,26,17.30
2013,05,05,11,27,17.40
2013,05,05,11,28,17.40
2013,05,05,11,29,17.50
2013,05,05,11,30,17.70
2013,05,05,11,31,17.80
2013,05,05,11,32,17.80
2013,05,05,11,33,18.00
2013,05,05,11,34,18.00
2013,05,05,11,35,18.10
2013,05,05,11,36,18.30
2013,05,05,11,37,18.30
2013,05,05,11,38,18.30
2013,05,05,11,39,18.40
2013,05,05,11,40,18.50
2013,05,05,11,41,18.50
2013,05,05,11,42,18.60
2013,05,05,11,43,18.60
2013,05,05,11,44,18.60
2013,05,05,11,45,18.60
2013,05,05,11,46,18.60
2013,05,05,11,47,18.60
2013,05,05,11,48,18.60
2013,05,05,11,49,18.70
2013,05,05,11,50,18.70
2013,05,05,11,51,18.70
2013,05,05,11,52,18.80
2013,05,05,11,53,18.80
2013,05,05,11,54,18.90
2013,05,05,11,55,19.00
2013,05,05,11,56,19.00
2013,05,05,11,57,18.90
2013,05,05,11,58,18.90
2013,05,05,11,59,18.90
2013,05,05,12,00,18.90
2013,05,05,12,01,18.90
2013,05,05,12,02,18.80
2013,05,05,12,03,18.90
2013,05,05,12,04,18.90
2013,05,05,12,05,18.80
2013,05,05,12,06,18.80
2013,05,05,12,07,18.70
2013,05,05,12,08,18.70
2013,05,05,12,09,18.60
2013,05,05,12,10,18.50
2013,05,05,12,11,18.50
2013,05,05,12,12,18.50
2013,05,05,12,13,18.60
2013,05,05,12,14,18.60
2013,05,05,12,15,18.70
2013,05,05,12,16,18.80
2013,05,05,12,17,18.80
2013,05,05,12,18,18.90
2013,05,05,12,19,18.90
2013,05,05,12,20,19.10
2013,05,05,12,21,19.20
2013,05,05,12,22,19.30
2013,05,05,12,23,19.30
2013,05,05,12,24,19.30
2013,05,05,12,25,19.30
2013,05,05,12,26,19.30
2013,05,05,12,27,19.30
2013,05,05,12,28,19.20
2013,05,05,12,29,19.30
2013,05,05,12,30,19.30
2013,05,05,12,31,19.30
2013,05,05,12,32,19.20
2013,05,05,12,33,19.20
2013,05,05,12,34,19.20
2013,05,05,12,35,19.20
2013,05,05,12,36,19.10
2013,05,05,12,37,19.10
2013,05,05,12,38,19.10
2013,05,05,12,39,19.10
2013,05,05,12,40,19.10
2013,05,05,12,41,19.20
2013,05,05,12,42,19.20
2013,05,05,12,43,19.30
2013,05,05,12,44,19.40
2013,05,05,12,45,19.40
2013,05,05,12,46,19.30
2013,05,05,12,47,19.30
2013,05,05,12,48,19.20
2013,05,05,12,49,19.10
2013,05,05,12,50,19.10
2013,05,05,12,51,19.10
2013,05,05,12,52,19.00
2013,05,05,12,53,18.90
2013,05,05,12,54,19.00
2013,05,05,12,55,19.10
2013,05,05,12,56,19.20
2013,05,05,12,57,19.30
2013,05,05,12,58,19.30
2013,05,05,12,59,19.40
2013,05,05,13,00,19.50
2013,05,05,13,01,19.50
2013,05,05,13,02,19.60
2013,05,05,13,03,19.50
2013,05,05,13,04,19.50
2013,05,05,13,05,19.40
2013,05,05,13,06,19.30
2013,05,05,13,07,19.20
2013,05,05,13,08,19.10
2013,05,05,13,09,19.10
2013,05,05,13,10,19.00
2013,05,05,13,11,19.00
2013,05,05,13,12,19.10
2013,05,05,13,13,19.20
2013,05,05,13,14,19.20
2013,05,05,13,15,19.20
2013,05,05,13,16,19.20
2013,05,05,13,17,19.20
2013,05,05,13,18,19.20
2013,05,05,13,19,19.20
2013,05,05,13,20,19.30
2013,05,05,13,21,19.40
2013,05,05,13,22,19.40
2013,05,05,13,23,19.50
2013,05,05,13,24,19.50
2013,05,05,13,25,19.50
2013,05,05,13,26,19.60
2013,05,05,13,27,19.60
2013,05,05,13,28,19.60
2013,05,05,13,29,19.60
2013,05,05,13,30,19.60
2013,05,05,13,31,19.60
2013,05,05,13,32,19.70
2013,05,05,13,33,19.80
2013,05,05,13,34,19.90
2013,05,05,13,35,20.10
2013,05,05,13,36,20.20
2013,05,05,13,37,20.30
2013,05,05,13,38,20.30
2013,05,05,13,39,20.30
2013,05,05,13,40,20.30
2013,05,05,13,41,20.30
2013,05,05,13,42,20.30
2013,05,05,13,43,20.30
2013,05,05,13,44,20.30
2013,05,05,13,45,20.30
2013,05,05,13,46,20.30
2013,05,05,13,47,20.30
2013,05,05,13,48,20.40
2013,05,05,13,49,20.50
2013,05,05,13,50,20.50
2013,05,05,13,51,20.60
2013,05,05,13,52,20.70
2013,05,05,13,53,20.70
2013,05,05,13,54,20.70
2013,05,05,13,55,20.80
2013,05,05,13,56,20.90
2013,05,05,13,57,21.00
2013,05,05,13,58,21.00
2013,05,05,13,59,21.10
2013,05,05,14,00,21.10
2013,05,05,14,01,21.10
2013,05,05,14,02,21.10
2013,05,05,14,03,21.10
2013,05,05,14,04,21.20
2013,05,05,14,05,21.20
2013,05,05,14,06,21.30
2013,05,05,14,07,21.40
2013,05,05,14,08,21.50
2013,05,05,14,09,21.50
2013,05,05,14,10,21.50
2013,05,05,14,11,21.50
2013,05,05,14,12,21.50
2013,05,05,14,13,21.50
2013,05,05,14,14,21.50
2013,05,05,14,15,21.40
2013,05,05,14,16,21.40
2013,05,05,14,17,21.50
2013,05,05,14,18,21.60
2013,05,05,14,19,21.70
2013,05,05,14,20,21.70
2013,05,05,14,21,21.80
2013,05,05,14,22,21.80
2013,05,05,14,23,21.90
2013,05,05,14,24,21.90
2013,05,05,14,25,21.90
2013,05,05,14,26,21.90
2013,05,05,14,27,21.80
2013,05,05,14,28,21.90
2013,05,05,14,29,22.00
2013,05,05,14,30,22.10
2013,05,05,14,31,22.10
2013,05,05,14,32,22.20
2013,05,05,14,33,22.20
2013,05,05,14,34,22.30
2013,05,05,14,35,22.40
2013,05,05,14,36,22.40
2013,05,05,14,37,22.40
2013,05,05,14,38,22.30
2013,05,05,14,39,22.30
2013,05,05,14,40,22.20
2013,05,05,14,41,22.20
2013,05,05,14,42,22.20
2013,05,05,14,43,22.30
2013,05,05,14,44,22.30
2013,05,05,14,45,22.40
2013,05,05,14,46,22.50
2013,05,05,14,47,22.60
2013,05,05,14,48,22.70
2013,05,05,14,49,22.70
2013,05,05,14,50,22.70
2013,05,05,14,51,22.70
2013,05,05,14,52,22.70
2013,05,05,14,53,22.70
2013,05,05,14,54,22.60
2013,05,05,14,55,22.50
2013,05,05,14,56,22.50
2013,05,05,14,57,22.50
2013,05,05,14,58,22.50
2013,05,05,14,59,22.60
2013,05,05,15,00,22.70
2013,05,05,15,01,22.80
2013,05,05,15,02,22.80
2013,05,05,15,03,22.90
2013,05,05,15,04,22.80
2013,05,05,15,05,22.80
2013,05,05,15,06,22.90
2013,05,05,15,07,22.80
2013,05,05,15,08,22.80
2013,05,05,15,09,22.80
2013,05,05,15,10,22.80
2013,05,05,15,11,22.80
2013,05,05,15,12,22.80
2013,05,05,15,13,22.80
2013,05,05,15,14,22.90
2013,05,05,15,15,22.90
2013,05,05,15,16,22.90
2013,05,05,15,17,23.00
2013,05,05,15,18,23.10
2013,05,05,15,19,23.20
2013,05,05,15,20,23.30
2013,05,05,15,21,23.40
2013,05,05,15,22,23.50
2013,05,05,15,23,23.50
2013,05,05,15,24,23.50
2013,05,05,15,25,23.50
2013,05,05,15,26,23.50
2013,05,05,15,27,23.40
2013,05,05,15,28,23.40
2013,05,05,15,29,23.30
2013,05,05,15,30,23.30
2013,05,05,15,31,23.30
2013,05,05,15,32,23.30
2013,05,05,15,33,23.30
2013,05,05,15,34,23.30
2013,05,05,15,35,23.30
2013,05,05,15,36,23.30
2013,05,05,15,37,23.30
2013,05,05,15,38,23.40
2013,05,05,15,39,23.30
2013,05,05,15,40,23.30
2013,05,05,15,41,23.30
2013,05,05,15,42,23.30
2013,05,05,15,43,23.30
2013,05,05,15,44,23.30
2013,05,05,15,45,23.20
2013,05,05,15,46,23.20
2013,05,05,15,47,23.20
2013,05,05,15,48,23.20
2013,05,05,15,49,23.20
2013,05,05,15,50,23.20
2013,05,05,15,51,23.20
2013,05,05,15,52,23.30
2013,05,05,15,53,23.40
2013,05,05,15,54,23.50
2013,05,05,15,55,23.60
2013,05,05,15,56,23.60
2013,05,05,15,57,23.60
2013,05,05,15,58,23.60
2013,05,05,15,59,23.60
2013,05,05,16,00,23.60
2013,05,05,16,01,23.70
2013,05,05,16,02,23.70
2013,05,05,16,03,23.70
2013,05,05,16,04,23.70
2013,05,05,16,05,23.70
2013,05,05,16,06,23.80
2013,05,05,16,07,23.90
2013,05,05,16,08,23.90
2013,05,05,16,09,24.00
2013,05,05,16,10,24.10
2013,05,05,16,11,24.00
2013,05,05,16,12,24.00
2013,05,05,16,13,23.90
2013,05,05,16,14,23.90
2013,05,05,16,15,23.80
2013,05,05,16,16,23.80
2013,05,05,16,17,23.80
2013,05,05,16,18,23.80
2013,05,05,16,19,23.80
2013,05,05,16,20,23.80
2013,05,05,16,21,23.90
2013,05,05,16,22,23.90
2013,05,05,16,23,23.90
2013,05,05,16,24,23.90
2013,05,05,16,25,23.90
2013,05,05,16,26,23.80
2013,05,05,16,27,23.80
2013,05,05,16,28,23.80
2013,05,05,16,29,23.90
2013,05,05,16,30,23.90
2013,05,05,16,31,23.90
2013,05,05,16,32,23.90
2013,05,05,16,33,23.80
2013,05,05,16,34,23.80
2013,05,05,16,35,23.80
2013,05,05,16,36,23.80
2013,05,05,16,37,23.80
2013,05,05,16,38,23.80
2013,05,05,16,39,23.80
2013,05,05,16,40,23.90
2013,05,05,16,41,23.90
2013,05,05,16,42,23.90
2013,05,05,16,43,23.90
2013,05,05,16,44,23.90
2013,05,05,16,45,23.90
2013,05,05,16,46,23.90
2013,05,05,16,47,23.90
2013,05,05,16,48,23.90
2013,05,05,16,49,23.90
2013,05,05,16,50,24.00
2013,05,05,16,51,24.10
2013,05,05,16,52,24.10
2013,05,05,16,53,24.10
2013,05,05,16,54,24.10
2013,05,05,16,55,24.10
2013,05,05,16,56,24.10
2013,05,05,16,57,24.10
2013,05,05,16,58,24.20
2013,05,05,16,59,24.20
2013,05,05,17,00,24.20
2013,05,05,17,01,24.20
2013,05,05,17,02,24.20
2013,05,05,17,03,24.20
2013,05,05,17,04,24.20
2013,05,05,17,05,24.20
2013,05,05,17,06,24.20
2013,05,05,17,07,24.20
2013,05,05,17,08,24.20
2013,05,05,17,09,24.20
2013,05,05,17,10,24.20
2013,05,05,17,11,24.10
2013,05,05,17,12,24.10
2013,05,05,17,13,24.10
2013,05,05,17,14,24.10
2013,05,05,17,15,24.20
2013,05,05,17,16,24.20
2013,05,05,17,17,24.30
2013,05,05,17,18,24.30
2013,05,05,17,19,24.30